| time (UTC) | temp C | wind direction | speed KPH | gust KPH | rain 1hr cm | rain 24hr cm | rain mn cm | humidity % | barometer mb |
| 20260906122741 | 20 | 175 | 1.6 | 3.2 | 0.00 | 0.00 | 0.00 | 99 | 1016.2 |
| 20260906122237 | 20 | 174 | 1.6 | 3.2 | 0.00 | 0.00 | 0.00 | 99 | 1016.1 |
| 20260906121733 | 20 | 185 | 3.2 | 3.2 | 0.00 | 0.00 | 0.00 | 99 | 1016.0 |
| 20260906121229 | 20 | 180 | 1.6 | 3.2 | 0.00 | 0.00 | 0.00 | 99 | 1016.0 |
| 20260906120725 | 20 | 200 | 3.2 | 4.8 | 0.00 | 0.00 | 0.00 | 99 | 1016.0 |
| 20260906120221 | 20 | 182 | 1.6 | 3.2 | 0.00 | 0.00 | 0.00 | 99 | 1016.0 |
| 20260906115717 | 20 | 186 | 0.0 | 3.2 | 0.00 | 0.00 | 0.00 | 99 | 1015.9 |
| 20260906115212 | 20 | 185 | 0.0 | 1.6 | 0.00 | 0.00 | 0.00 | 99 | 1015.7 |
| 20260906114711 | 20 | 174 | 1.6 | 1.6 | 0.00 | 0.00 | 0.00 | 99 | 1015.6 |
| 20260906114207 | 20 | 187 | 0.0 | 1.6 | 0.00 | 0.00 | 0.00 | 99 | 1015.5 |
| 20260906113702 | 20 | 192 | 3.2 | 3.2 | 0.00 | 0.00 | 0.00 | 99 | 1015.4 |
| 20260906113201 | 21 | 185 | 1.6 | 1.6 | 0.00 | 0.00 | 0.00 | 99 | 1015.3 |
| 20260906112700 | 20 | 184 | 0.0 | 1.6 | 0.00 | 0.00 | 0.00 | 99 | 1015.4 |
| 20260906112158 | 20 | 184 | 0.0 | 1.6 | 0.00 | 0.00 | 0.00 | 99 | 1015.3 |
| 20260906111657 | 20 | 184 | 0.0 | 1.6 | 0.00 | 0.00 | 0.00 | 99 | 1015.1 |
| 20260906111151 | 20 | 184 | 0.0 | 1.6 | 0.00 | 0.00 | 0.00 | 99 | 1015.2 |
| 20260906110646 | 20 | 192 | 0.0 | 1.6 | 0.00 | 0.00 | 0.00 | 99 | 1015.3 |
| 20260906110142 | 20 | 192 | 0.0 | 1.6 | 0.00 | 0.00 | 0.00 | 99 | 1015.1 |
| 20260906105635 | 20 | 193 | 1.6 | 1.6 | 0.00 | 0.00 | 0.00 | 99 | 1015.0 |
| 20260906105132 | 20 | 195 | 0.0 | 0.0 | 0.00 | 0.00 | 0.00 | 99 | 1014.8 |
| 20260906104631 | 20 | 196 | 0.0 | 3.2 | 0.00 | 0.00 | 0.00 | 99 | 1014.6 |
| 20260906104125 | 20 | 169 | 1.6 | 4.8 | 0.00 | 0.00 | 0.00 | 99 | 1014.5 |
| 20260906103623 | 20 | 173 | 1.6 | 4.8 | 0.00 | 0.00 | 0.00 | 99 | 1014.6 |
| 20260906103119 | 20 | 185 | 3.2 | 3.2 | 0.00 | 0.00 | 0.00 | 99 | 1014.8 |
| 20260906102614 | 20 | 199 | 1.6 | 3.2 | 0.00 | 0.00 | 0.00 | 99 | 1014.6 |
| 20260906102108 | 20 | 183 | 0.0 | 1.6 | 0.00 | 0.00 | 0.00 | 99 | 1014.3 |
| 20260906101603 | 20 | 185 | 1.6 | 3.2 | 0.00 | 0.00 | 0.00 | 99 | 1014.5 |
| 20260906101102 | 20 | 207 | 3.2 | 3.2 | 0.00 | 0.00 | 0.00 | 99 | 1014.4 |
| 20260906100558 | 20 | 202 | 0.0 | 1.6 | 0.00 | 0.00 | 0.00 | 99 | 1014.5 |
| 20260906100053 | 20 | 195 | 0.0 | 1.6 | 0.00 | 0.00 | 0.00 | 99 | 1014.3 |
| 20260906095547 | 20 | 195 | 0.0 | 1.6 | 0.00 | 0.00 | 0.00 | 99 | 1014.4 |
| 20260906095042 | 20 | 197 | 0.0 | 1.6 | 0.00 | 0.00 | 0.00 | 99 | 1014.4 |
| 20260906094541 | 20 | 198 | 3.2 | 3.2 | 0.00 | 0.00 | 0.00 | 99 | 1014.3 |
| 20260906094037 | 20 | 195 | 0.0 | 1.6 | 0.00 | 0.00 | 0.00 | 99 | 1014.5 |
| 20260906093534 | 20 | 190 | 1.6 | 1.6 | 0.00 | 0.00 | 0.00 | 99 | 1014.2 |
| 20260906093033 | 20 | 161 | 1.6 | 1.6 | 0.00 | 0.00 | 0.00 | 99 | 1014.4 |
| 20260906092528 | 20 | 158 | 0.0 | 0.0 | 0.00 | 0.00 | 0.00 | 99 | 1014.4 |
| 20260906092024 | 20 | 186 | 0.0 | 1.6 | 0.00 | 0.00 | 0.00 | 99 | 1014.4 |
| 20260906091519 | 20 | 222 | 4.8 | 9.7 | 0.00 | 0.00 | 0.00 | 99 | 1014.5 |
| 20260906091016 | 20 | 154 | 0.0 | 0.0 | 0.00 | 0.00 | 0.00 | 99 | 1014.4 |
| 20260906090516 | 19 | 150 | 0.0 | 0.0 | 0.00 | 0.00 | 0.00 | 99 | 1014.4 |
| 20260906090011 | 19 | 154 | 0.0 | 0.0 | 0.00 | 0.00 | 0.00 | 99 | 1014.6 |
| 20260906085510 | 19 | 154 | 0.0 | 0.0 | 0.00 | 0.00 | 0.00 | 99 | 1014.6 |
| 20260906085009 | 19 | 154 | 0.0 | 0.0 | 0.00 | 0.00 | 0.00 | 99 | 1014.4 |
| 20260906084504 | 19 | 155 | 0.0 | 0.0 | 0.00 | 0.00 | 0.00 | 99 | 1014.4 |
| 20260906084002 | 18 | 155 | 0.0 | 0.0 | 0.00 | 0.00 | 0.00 | 99 | 1014.6 |
| 20260906083459 | 18 | 155 | 0.0 | 0.0 | 0.00 | 0.00 | 0.00 | 99 | 1014.5 |
| 20260906082958 | 18 | 154 | 0.0 | 0.0 | 0.00 | 0.00 | 0.00 | 99 | 1014.4 |
| 20260906082453 | 18 | 148 | 0.0 | 0.0 | 0.00 | 0.00 | 0.00 | 99 | 1014.5 |
| 20260906081949 | 18 | 148 | 0.0 | 0.0 | 0.00 | 0.00 | 0.00 | 99 | 1014.5 |
| 20260906081444 | 18 | 147 | 0.0 | 0.0 | 0.00 | 0.00 | 0.00 | 99 | 1014.4 |
| 20260906080940 | 18 | 148 | 0.0 | 0.0 | 0.00 | 0.00 | 0.00 | 99 | 1014.4 |
| 20260906080437 | 18 | 146 | 0.0 | 0.0 | 0.00 | 0.00 | 0.00 | 99 | 1014.4 |
| 20260906075936 | 18 | 146 | 0.0 | 0.0 | 0.00 | 0.00 | 0.00 | 99 | 1014.3 |
| 20260906075431 | 18 | 146 | 0.0 | 0.0 | 0.00 | 0.00 | 0.00 | 99 | 1014.3 |
| 20260906074927 | 18 | 146 | 0.0 | 0.0 | 0.00 | 0.00 | 0.00 | 99 | 1014.5 |
| 20260906074426 | 18 | 146 | 0.0 | 0.0 | 0.00 | 0.00 | 0.00 | 99 | 1014.4 |
| 20260906073925 | 19 | 146 | 0.0 | 0.0 | 0.00 | 0.00 | 0.00 | 99 | 1014.3 |
| 20260906073420 | 19 | 145 | 0.0 | 0.0 | 0.00 | 0.00 | 0.00 | 99 | 1014.3 |
| 20260906072917 | 18 | 146 | 0.0 | 0.0 | 0.00 | 0.00 | 0.00 | 99 | 1014.2 |
| 20260906072412 | 18 | 146 | 0.0 | 0.0 | 0.00 | 0.00 | 0.00 | 99 | 1014.3 |
| 20260906071908 | 18 | 146 | 0.0 | 0.0 | 0.00 | 0.00 | 0.00 | 99 | 1014.2 |
| 20260906071403 | 18 | 144 | 0.0 | 0.0 | 0.00 | 0.00 | 0.00 | 99 | 1014.3 |
| 20260906070858 | 18 | 162 | 0.0 | 0.0 | 0.00 | 0.00 | 0.00 | 99 | 1014.3 |
| 20260906070355 | 18 | 164 | 0.0 | 0.0 | 0.00 | 0.00 | 0.00 | 99 | 1014.2 |
| 20260906065850 | 18 | 164 | 0.0 | 0.0 | 0.00 | 0.00 | 0.00 | 99 | 1014.2 |
| 20260906065344 | 19 | 164 | 0.0 | 0.0 | 0.00 | 0.00 | 0.00 | 99 | 1014.2 |
| 20260906064840 | 19 | 168 | 0.0 | 0.0 | 0.00 | 0.00 | 0.00 | 99 | 1014.4 |
| 20260906064337 | 18 | 171 | 0.0 | 0.0 | 0.00 | 0.00 | 0.00 | 99 | 1014.4 |
| 20260906063836 | 19 | 171 | 0.0 | 0.0 | 0.00 | 0.00 | 0.00 | 99 | 1014.2 |
| 20260906063332 | 19 | 171 | 0.0 | 0.0 | 0.00 | 0.00 | 0.00 | 99 | 1014.3 |
| 20260906062827 | 19 | 171 | 0.0 | 0.0 | 0.00 | 0.00 | 0.00 | 99 | 1014.2 |
| 20260906062326 | 19 | 170 | 0.0 | 0.0 | 0.00 | 0.00 | 0.00 | 99 | 1014.1 |
| 20260906061821 | 19 | 168 | 0.0 | 0.0 | 0.00 | 0.00 | 0.00 | 99 | 1014.4 |
| 20260906061318 | 19 | 168 | 0.0 | 0.0 | 0.00 | 0.00 | 0.00 | 99 | 1014.5 |
| 20260906060812 | 19 | 168 | 0.0 | 0.0 | 0.00 | 0.00 | 0.00 | 99 | 1014.3 |
| 20260906060310 | 20 | 168 | 0.0 | 0.0 | 0.00 | 0.00 | 0.00 | 99 | 1014.5 |
| 20260906055806 | 20 | 166 | 0.0 | 0.0 | 0.00 | 0.00 | 0.00 | 99 | 1014.5 |
| 20260906055301 | 20 | 166 | 0.0 | 0.0 | 0.00 | 0.00 | 0.00 | 99 | 1014.6 |
| 20260906054756 | 20 | 166 | 0.0 | 0.0 | 0.00 | 0.00 | 0.00 | 99 | 1014.5 |
| 20260906054251 | 20 | 166 | 0.0 | 0.0 | 0.00 | 0.00 | 0.00 | 99 | 1014.4 |
| 20260906053748 | 20 | 166 | 0.0 | 0.0 | 0.00 | 0.00 | 0.00 | 99 | 1014.4 |
| 20260906053243 | 20 | 165 | 0.0 | 0.0 | 0.00 | 0.00 | 0.00 | 99 | 1014.4 |
| 20260906052738 | 20 | 166 | 0.0 | 0.0 | 0.00 | 0.00 | 0.00 | 99 | 1014.6 |
| 20260906052234 | 20 | 166 | 0.0 | 0.0 | 0.00 | 0.00 | 0.00 | 99 | 1014.4 |
| 20260906051731 | 20 | 166 | 0.0 | 0.0 | 0.00 | 0.00 | 0.00 | 99 | 1014.2 |
| 20260906051231 | 20 | 166 | 0.0 | 0.0 | 0.00 | 0.00 | 0.00 | 99 | 1014.0 |
| 20260906050726 | 20 | 166 | 0.0 | 0.0 | 0.00 | 0.00 | 0.00 | 99 | 1014.2 |
| 20260906050221 | 20 | 166 | 0.0 | 0.0 | 0.00 | 0.00 | 0.00 | 99 | 1014.3 |
| 20260906045720 | 20 | 166 | 0.0 | 0.0 | 0.00 | 0.00 | 0.00 | 99 | 1014.0 |
| 20260906045215 | 20 | 166 | 0.0 | 0.0 | 0.00 | 0.00 | 0.00 | 99 | 1014.2 |
| 20260906044711 | 20 | 166 | 0.0 | 0.0 | 0.00 | 0.00 | 0.00 | 99 | 1014.1 |
| 20260906044206 | 20 | 166 | 0.0 | 0.0 | 0.00 | 0.00 | 0.00 | 99 | 1014.1 |
| 20260906043702 | 20 | 167 | 0.0 | 0.0 | 0.00 | 0.00 | 0.00 | 99 | 1014.0 |
| 20260906043157 | 20 | 166 | 0.0 | 0.0 | 0.00 | 0.00 | 0.00 | 99 | 1014.0 |
| 20260906042657 | 20 | 151 | 0.0 | 0.0 | 0.00 | 0.00 | 0.00 | 99 | 1014.0 |
| 20260906042156 | 20 | 151 | 0.0 | 0.0 | 0.00 | 0.00 | 0.00 | 99 | 1014.0 |
| 20260906041652 | 20 | 151 | 0.0 | 0.0 | 0.00 | 0.00 | 0.00 | 99 | 1014.2 |
| 20260906041147 | 20 | 151 | 0.0 | 0.0 | 0.00 | 0.00 | 0.00 | 99 | 1014.2 |
| 20260906040643 | 20 | 151 | 0.0 | 0.0 | 0.00 | 0.00 | 0.00 | 99 | 1014.3 |
| 20260906040138 | 20 | 151 | 0.0 | 0.0 | 0.00 | 0.15 | 0.15 | 99 | 1014.1 |
| 20260906035633 | 20 | 151 | 0.0 | 0.0 | 0.00 | 0.15 | 0.15 | 99 | 1014.2 |
| 20260906035129 | 20 | 151 | 0.0 | 0.0 | 0.00 | 0.15 | 0.15 | 99 | 1014.2 |
| 20260906034623 | 21 | 150 | 0.0 | 0.0 | 0.00 | 0.15 | 0.15 | 99 | 1014.3 |
| 20260906034118 | 21 | 150 | 0.0 | 0.0 | 0.00 | 0.15 | 0.15 | 99 | 1014.2 |
| 20260906033614 | 21 | 150 | 0.0 | 0.0 | 0.00 | 0.15 | 0.15 | 99 | 1014.3 |
| 20260906033109 | 21 | 150 | 0.0 | 0.0 | 0.00 | 0.15 | 0.15 | 99 | 1014.1 |
| 20260906032606 | 21 | 158 | 0.0 | 0.0 | 0.00 | 0.15 | 0.15 | 99 | 1014.4 |
| 20260906032105 | 21 | 194 | 0.0 | 0.0 | 0.00 | 0.15 | 0.15 | 99 | 1014.4 |
| 20260906031601 | 21 | 199 | 0.0 | 1.6 | 0.00 | 0.15 | 0.15 | 99 | 1014.5 |
| 20260906031057 | 20 | 230 | 9.7 | 9.7 | 0.00 | 0.15 | 0.15 | 99 | 1014.5 |
| 20260906030556 | 20 | 215 | 1.6 | 1.6 | 0.00 | 0.15 | 0.15 | 99 | 1014.4 |
| 20260906030055 | 21 | 201 | 0.0 | 0.0 | 0.00 | 0.15 | 0.15 | 99 | 1014.5 |
| 20260906025549 | 21 | 199 | 0.0 | 0.0 | 0.00 | 0.15 | 0.15 | 99 | 1014.4 |
| 20260906025048 | 21 | 167 | 0.0 | 0.0 | 0.13 | 0.15 | 0.15 | 99 | 1014.5 |
| 20260906024543 | 21 | 167 | 0.0 | 0.0 | 0.13 | 0.15 | 0.15 | 99 | 1014.6 |
| 20260906024043 | 21 | 167 | 0.0 | 0.0 | 0.00 | 0.13 | 0.13 | 99 | 1014.5 |
| 20260906023539 | 21 | 167 | 0.0 | 0.0 | 0.00 | 0.13 | 0.13 | 99 | 1014.6 |
| 20260906023034 | 21 | 167 | 0.0 | 0.0 | 0.00 | 0.13 | 0.13 | 99 | 1014.5 |
| 20260906022529 | 21 | 167 | 0.0 | 0.0 | 0.00 | 0.13 | 0.13 | 99 | 1014.5 |
| 20260906022024 | 21 | 167 | 0.0 | 0.0 | 0.00 | 0.13 | 0.13 | 99 | 1014.4 |
| 20260906021520 | 21 | 167 | 0.0 | 0.0 | 0.00 | 0.13 | 0.13 | 99 | 1014.2 |
| 20260906021014 | 21 | 167 | 0.0 | 0.0 | 0.00 | 0.13 | 0.13 | 99 | 1014.4 |
| 20260906020513 | 21 | 167 | 0.0 | 0.0 | 0.00 | 0.13 | 0.13 | 99 | 1014.5 |
| 20260906020013 | 21 | 167 | 0.0 | 0.0 | 0.00 | 0.13 | 0.13 | 99 | 1014.4 |
| 20260906015512 | 21 | 168 | 0.0 | 0.0 | 0.00 | 0.13 | 0.13 | 99 | 1014.3 |
| 20260906015007 | 21 | 167 | 0.0 | 0.0 | 0.00 | 0.13 | 0.13 | 99 | 1014.2 |
| 20260906014502 | 21 | 167 | 0.0 | 0.0 | 0.00 | 0.13 | 0.13 | 99 | 1014.3 |
| 20260906013957 | 21 | 167 | 0.0 | 0.0 | 0.00 | 0.13 | 0.13 | 99 | 1014.1 |
| 20260906013452 | 21 | 167 | 0.0 | 0.0 | 0.00 | 0.13 | 0.13 | 99 | 1014.2 |
| 20260906012942 | 21 | 167 | 0.0 | 0.0 | 0.00 | 0.13 | 0.13 | 99 | 1014.0 |
| 20260906012436 | 21 | 167 | 0.0 | 0.0 | 0.00 | 0.13 | 0.13 | 99 | 1013.7 |
| 20260906011936 | 21 | 167 | 0.0 | 0.0 | 0.00 | 0.13 | 0.13 | 99 | 1013.4 |
| 20260906011432 | 22 | 84 | 0.0 | 1.6 | 0.00 | 0.13 | 0.13 | 99 | 1013.8 |
| 20260906010927 | 22 | 75 | 0.0 | 0.0 | 0.00 | 0.13 | 0.13 | 99 | 1013.7 |
| 20260906010422 | 22 | 75 | 0.0 | 1.6 | 0.00 | 0.13 | 0.13 | 99 | 1013.5 |
| 20260906005919 | 22 | 75 | 0.0 | 0.0 | 0.00 | 0.13 | 0.13 | 99 | 1013.6 |
| 20260906005418 | 22 | 74 | 0.0 | 0.0 | 0.00 | 0.13 | 0.13 | 99 | 1013.6 |
| 20260906004916 | 22 | 74 | 0.0 | 0.0 | 0.00 | 0.13 | 0.13 | 99 | 1013.6 |
| 20260906004411 | 22 | 74 | 0.0 | 0.0 | 0.00 | 0.13 | 0.13 | 99 | 1013.3 |
| 20260906003907 | 22 | 75 | 0.0 | 0.0 | 0.00 | 0.13 | 0.13 | 99 | 1013.4 |
| 20260906003401 | 22 | 74 | 0.0 | 0.0 | 0.00 | 0.13 | 0.13 | 99 | 1013.3 |
| 20260906002857 | 22 | 75 | 0.0 | 0.0 | 0.00 | 0.13 | 0.13 | 99 | 1013.3 |
| 20260906002355 | 22 | 74 | 0.0 | 0.0 | 0.00 | 0.13 | 0.13 | 99 | 1013.3 |
| 20260906001852 | 22 | 74 | 0.0 | 0.0 | 0.00 | 0.13 | 0.13 | 99 | 1013.3 |
| 20260906001347 | 23 | 74 | 0.0 | 0.0 | 0.00 | 0.13 | 0.13 | 99 | 1013.3 |
| 20260906000842 | 23 | 74 | 0.0 | 0.0 | 0.00 | 0.13 | 0.13 | 99 | 1013.5 |
| 20260906000343 | 23 | 74 | 1.6 | 1.6 | 0.00 | 0.13 | 0.13 | 99 | 1013.5 |
| 20260905235842 | 23 | 75 | 1.6 | 1.6 | 0.00 | 0.13 | 0.13 | 99 | 1013.4 |
| 20260905235337 | 23 | 75 | 0.0 | 0.0 | 0.00 | 0.13 | 0.13 | 99 | 1013.6 |
| 20260905234832 | 23 | 75 | 0.0 | 0.0 | 0.00 | 0.13 | 0.13 | 98 | 1013.5 |
| 20260905234327 | 24 | 75 | 0.0 | 1.6 | 0.00 | 0.13 | 0.13 | 98 | 1013.7 |
| 20260905233822 | 24 | 75 | 0.0 | 1.6 | 0.00 | 0.13 | 0.13 | 97 | 1013.6 |
| 20260905233317 | 25 | 75 | 0.0 | 1.6 | 0.00 | 0.13 | 0.13 | 96 | 1013.6 |
| 20260905232816 | 25 | 75 | 0.0 | 0.0 | 0.00 | 0.13 | 0.13 | 95 | 1013.6 |
| 20260905232313 | 25 | 75 | 0.0 | 0.0 | 0.00 | 0.13 | 0.13 | 94 | 1013.5 |
| 20260905231808 | 26 | 75 | 0.0 | 0.0 | 0.00 | 0.13 | 0.13 | 92 | 1013.5 |
| 20260905231303 | 26 | 75 | 0.0 | 0.0 | 0.00 | 0.13 | 0.13 | 92 | 1013.5 |
| 20260905230759 | 26 | 75 | 0.0 | 1.6 | 0.00 | 0.13 | 0.13 | 91 | 1013.7 |
| 20260905230257 | 26 | 22 | 1.6 | 1.6 | 0.00 | 0.13 | 0.13 | 89 | 1013.7 |
| 20260905225757 | 26 | 53 | 1.6 | 3.2 | 0.00 | 0.13 | 0.13 | 88 | 1013.4 |
| 20260905225252 | 27 | 85 | 1.6 | 1.6 | 0.00 | 0.13 | 0.13 | 88 | 1013.6 |
| 20260905224752 | 27 | 85 | 0.0 | 0.0 | 0.00 | 0.13 | 0.13 | 87 | 1013.5 |
| 20260905224248 | 27 | 85 | 0.0 | 1.6 | 0.00 | 0.13 | 0.13 | 84 | 1013.5 |
| 20260905223743 | 28 | 85 | 0.0 | 0.0 | 0.00 | 0.13 | 0.13 | 76 | 1013.5 |
| 20260905223240 | 28 | 84 | 0.0 | 1.6 | 0.00 | 0.13 | 0.13 | 77 | 1013.5 |
| 20260905222735 | 28 | 39 | 1.6 | 3.2 | 0.00 | 0.13 | 0.13 | 76 | 1013.8 |
| 20260905222234 | 29 | 34 | 3.2 | 3.2 | 0.00 | 0.13 | 0.13 | 75 | 1013.4 |
| 20260905221730 | 28 | 37 | 0.0 | 0.0 | 0.00 | 0.13 | 0.13 | 78 | 1013.6 |
| 20260905221227 | 28 | 66 | 0.0 | 1.6 | 0.00 | 0.13 | 0.13 | 77 | 1013.7 |
| 20260905220722 | 28 | 148 | 0.0 | 1.6 | 0.00 | 0.13 | 0.13 | 73 | 1013.7 |
| 20260905220218 | 28 | 103 | 1.6 | 3.2 | 0.00 | 0.13 | 0.13 | 77 | 1013.7 |
| 20260905215717 | 28 | 111 | 1.6 | 3.2 | 0.00 | 0.13 | 0.13 | 74 | 1013.7 |
| 20260905215213 | 30 | 25 | 4.8 | 6.4 | 0.00 | 0.13 | 0.13 | 73 | 1013.8 |
| 20260905214709 | 29 | 111 | 1.6 | 3.2 | 0.00 | 0.13 | 0.13 | 71 | 1013.6 |
| 20260905214204 | 29 | 84 | 4.8 | 6.4 | 0.00 | 0.13 | 0.13 | 70 | 1013.4 |
| 20260905213659 | 28 | 157 | 0.0 | 4.8 | 0.00 | 0.13 | 0.13 | 74 | 1013.5 |
| 20260905213155 | 29 | 153 | 0.0 | 3.2 | 0.00 | 0.13 | 0.13 | 70 | 1013.4 |
| 20260905212650 | 29 | 160 | 3.2 | 4.8 | 0.00 | 0.13 | 0.13 | 69 | 1013.4 |
| 20260905212149 | 30 | 46 | 4.8 | 6.4 | 0.00 | 0.13 | 0.13 | 73 | 1013.3 |
| 20260905211644 | 29 | 56 | 3.2 | 9.7 | 0.00 | 0.13 | 0.13 | 69 | 1013.2 |
| 20260905211140 | 29 | 98 | 1.6 | 6.4 | 0.00 | 0.13 | 0.13 | 71 | 1013.3 |
| 20260905210636 | 29 | 111 | 3.2 | 4.8 | 0.00 | 0.13 | 0.13 | 71 | 1013.2 |
| 20260905210131 | 28 | 7 | 1.6 | 3.2 | 0.00 | 0.13 | 0.13 | 69 | 1013.2 |
| 20260905205630 | 27 | 172 | 0.0 | 3.2 | 0.00 | 0.13 | 0.13 | 75 | 1013.2 |
| 20260905205130 | 27 | 212 | 3.2 | 4.8 | 0.00 | 0.13 | 0.13 | 74 | 1013.3 |
| 20260905204624 | 28 | 149 | 3.2 | 4.8 | 0.00 | 0.13 | 0.13 | 73 | 1013.5 |
| 20260905204119 | 29 | 56 | 0.0 | 1.6 | 0.00 | 0.13 | 0.13 | 71 | 1013.4 |
| 20260905203613 | 29 | 33 | 3.2 | 4.8 | 0.00 | 0.13 | 0.13 | 69 | 1013.4 |
| 20260905203109 | 28 | 145 | 0.0 | 3.2 | 0.00 | 0.13 | 0.13 | 72 | 1013.3 |
| 20260905202604 | 28 | 34 | 0.0 | 4.8 | 0.00 | 0.13 | 0.13 | 72 | 1013.3 |
| 20260905202059 | 28 | 61 | 6.4 | 6.4 | 0.00 | 0.13 | 0.13 | 71 | 1013.4 |
| 20260905201554 | 29 | 33 | 3.2 | 4.8 | 0.00 | 0.13 | 0.13 | 71 | 1013.6 |
| 20260905201054 | 28 | 53 | 1.6 | 4.8 | 0.00 | 0.13 | 0.13 | 74 | 1013.8 |
| 20260905200550 | 29 | 98 | 3.2 | 4.8 | 0.00 | 0.13 | 0.13 | 71 | 1013.7 |
| 20260905200050 | 29 | 62 | 4.8 | 4.8 | 0.00 | 0.13 | 0.13 | 76 | 1013.9 |
| 20260905195543 | 28 | 52 | 1.6 | 3.2 | 0.00 | 0.13 | 0.13 | 72 | 1013.8 |
| 20260905195039 | 28 | 53 | 3.2 | 6.4 | 0.00 | 0.13 | 0.13 | 73 | 1014.0 |
| 20260905194539 | 28 | 178 | 6.4 | 6.4 | 0.00 | 0.13 | 0.13 | 71 | 1013.9 |
| 20260905194038 | 28 | 77 | 6.4 | 9.7 | 0.00 | 0.13 | 0.13 | 70 | 1013.9 |
| 20260905193533 | 28 | 145 | 0.0 | 4.8 | 0.00 | 0.13 | 0.13 | 75 | 1013.9 |
| 20260905193028 | 27 | 267 | 3.2 | 4.8 | 0.00 | 0.13 | 0.13 | 74 | 1013.9 |
| 20260905192523 | 27 | 210 | 1.6 | 4.8 | 0.00 | 0.13 | 0.13 | 76 | 1014.0 |
| 20260905192020 | 27 | 170 | 3.2 | 3.2 | 0.00 | 0.13 | 0.13 | 78 | 1014.4 |
| 20260905191518 | 27 | 230 | 1.6 | 3.2 | 0.00 | 0.13 | 0.13 | 73 | 1014.3 |
| 20260905191018 | 27 | 187 | 1.6 | 3.2 | 0.00 | 0.13 | 0.13 | 74 | 1014.2 |
| 20260905190516 | 27 | 49 | 3.2 | 9.7 | 0.00 | 0.13 | 0.13 | 76 | 1014.6 |
| 20260905190016 | 28 | 67 | 3.2 | 11.3 | 0.00 | 0.13 | 0.13 | 78 | 1014.6 |
| 20260905185510 | 28 | 243 | 0.0 | 11.3 | 0.00 | 0.13 | 0.13 | 78 | 1014.5 |
| 20260905185009 | 28 | 263 | 1.6 | 9.7 | 0.00 | 0.13 | 0.13 | 74 | 1014.8 |
| 20260905184504 | 28 | 65 | 11.3 | 16.1 | 0.00 | 0.13 | 0.13 | 78 | 1014.8 |
| 20260905184003 | 28 | 58 | 1.6 | 4.8 | 0.18 | 0.13 | 0.13 | 79 | 1014.8 |
| 20260905183502 | 27 | 31 | 6.4 | 6.4 | 0.18 | 0.13 | 0.13 | 76 | 1015.0 |
| 20260905182957 | 28 | 73 | 6.4 | 9.7 | 0.00 | 0.10 | 0.10 | 74 | 1014.8 |
| 20260905182457 | 28 | 297 | 1.6 | 3.2 | 0.00 | 0.10 | 0.10 | 76 | 1015.0 |
| 20260905181952 | 27 | 225 | 1.6 | 6.4 | 0.00 | 0.10 | 0.10 | 81 | 1015.1 |
| 20260905181447 | 27 | 257 | 1.6 | 4.8 | 0.00 | 0.10 | 0.10 | 80 | 1015.1 |
| 20260905180946 | 26 | 36 | 3.2 | 3.2 | 0.00 | 0.10 | 0.10 | 78 | 1015.2 |
| 20260905180441 | 26 | 45 | 6.4 | 11.3 | 0.00 | 0.10 | 0.10 | 80 | 1015.3 |
| 20260905175936 | 26 | 63 | 3.2 | 3.2 | 0.00 | 0.10 | 0.10 | 79 | 1015.2 |
| 20260905175436 | 26 | 272 | 3.2 | 4.8 | 0.00 | 0.10 | 0.10 | 79 | 1015.3 |
| 20260905174931 | 26 | 17 | 1.6 | 9.7 | 0.00 | 0.10 | 0.10 | 80 | 1015.2 |
| 20260905174426 | 26 | 41 | 6.4 | 9.7 | 0.00 | 0.10 | 0.10 | 81 | 1015.3 |
| 20260905173922 | 26 | 41 | 9.7 | 12.9 | 0.00 | 0.10 | 0.10 | 83 | 1015.3 |
| 20260905173419 | 26 | 53 | 8.0 | 12.9 | 0.00 | 0.10 | 0.10 | 83 | 1015.5 |
| 20260905172918 | 26 | 43 | 4.8 | 6.4 | 0.00 | 0.10 | 0.10 | 82 | 1015.3 |
| 20260905172416 | 26 | 67 | 4.8 | 6.4 | 0.00 | 0.10 | 0.10 | 82 | 1015.5 |
| 20260905171912 | 26 | 40 | 11.3 | 16.1 | 0.00 | 0.10 | 0.10 | 82 | 1015.5 |
| 20260905171409 | 26 | 56 | 4.8 | 9.7 | 0.00 | 0.10 | 0.10 | 80 | 1015.3 |
| 20260905170905 | 26 | 64 | 0.0 | 1.6 | 0.00 | 0.10 | 0.10 | 82 | 1015.3 |
| 20260905170401 | 26 | 45 | 8.0 | 9.7 | 0.00 | 0.10 | 0.10 | 81 | 1015.4 |
| 20260905165900 | 25 | 228 | 1.6 | 11.3 | 0.00 | 0.10 | 0.10 | 82 | 1015.5 |
| 20260905165356 | 25 | 273 | 3.2 | 12.9 | 0.00 | 0.10 | 0.10 | 84 | 1015.6 |
| 20260905164856 | 25 | 325 | 4.8 | 9.7 | 0.00 | 0.10 | 0.10 | 84 | 1015.7 |
| 20260905164351 | 26 | 250 | 6.4 | 9.7 | 0.00 | 0.10 | 0.10 | 85 | 1015.9 |
| 20260905163846 | 26 | 289 | 3.2 | 9.7 | 0.00 | 0.10 | 0.10 | 88 | 1015.9 |
| 20260905163342 | 25 | 30 | 6.4 | 11.3 | 0.00 | 0.10 | 0.10 | 88 | 1016.1 |
| 20260905162838 | 25 | 42 | 3.2 | 9.7 | 0.00 | 0.10 | 0.10 | 89 | 1016.6 |
| 20260905162338 | 25 | 25 | 3.2 | 4.8 | 0.00 | 0.10 | 0.10 | 89 | 1016.6 |
| 20260905161832 | 25 | 22 | 4.8 | 6.4 | 0.00 | 0.10 | 0.10 | 88 | 1016.6 |
| 20260905161332 | 25 | 278 | 4.8 | 9.7 | 0.00 | 0.10 | 0.10 | 88 | 1016.6 |
| 20260905160831 | 25 | 37 | 1.6 | 6.4 | 0.00 | 0.10 | 0.10 | 92 | 1016.6 |
| 20260905160330 | 23 | 259 | 3.2 | 3.2 | 0.00 | 0.10 | 0.10 | 94 | 1016.7 |
| 20260905155825 | 23 | 270 | 1.6 | 3.2 | 0.00 | 0.10 | 0.10 | 96 | 1016.5 |
| 20260905155324 | 22 | 214 | 0.0 | 3.2 | 0.00 | 0.10 | 0.10 | 99 | 1016.6 |
| 20260905154819 | 22 | 201 | 3.2 | 6.4 | 0.00 | 0.10 | 0.10 | 99 | 1016.6 |
| 20260905154314 | 22 | 3 | 0.0 | 1.6 | 0.00 | 0.10 | 0.10 | 99 | 1016.5 |
| 20260905153809 | 22 | 109 | 1.6 | 1.6 | 0.00 | 0.10 | 0.10 | 99 | 1016.5 |
| 20260905153307 | 22 | 71 | 1.6 | 1.6 | 0.00 | 0.10 | 0.10 | 99 | 1016.5 |
| 20260905152806 | 22 | 162 | 0.0 | 1.6 | 0.00 | 0.10 | 0.10 | 99 | 1016.4 |
| 20260905152306 | 22 | 109 | 0.0 | 1.6 | 0.00 | 0.10 | 0.10 | 99 | 1016.3 |
| 20260905151800 | 22 | 222 | 1.6 | 4.8 | 0.00 | 0.10 | 0.10 | 99 | 1016.3 |
| 20260905151256 | 21 | 146 | 4.8 | 4.8 | 0.00 | 0.10 | 0.10 | 99 | 1016.1 |
| 20260905150756 | 22 | 235 | 3.2 | 4.8 | 0.00 | 0.10 | 0.10 | 99 | 1016.2 |
| 20260905150255 | 22 | 116 | 0.0 | 1.6 | 0.00 | 0.10 | 0.10 | 99 | 1015.7 |
| 20260905145753 | 22 | 218 | 0.0 | 1.6 | 0.00 | 0.10 | 0.10 | 99 | 1015.7 |
| 20260905145247 | 22 | 216 | 0.0 | 1.6 | 0.00 | 0.10 | 0.10 | 99 | 1015.5 |
| 20260905144746 | 21 | 271 | 8.0 | 11.3 | 0.00 | 0.10 | 0.10 | 99 | 1015.1 |
| 20260905144242 | 21 | 91 | 6.4 | 9.7 | 0.00 | 0.10 | 0.10 | 99 | 1014.9 |
| 20260905143741 | 21 | 57 | 6.4 | 6.4 | 0.00 | 0.10 | 0.10 | 99 | 1015.0 |
| 20260905143241 | 21 | 212 | 0.0 | 1.6 | 0.18 | 0.10 | 0.10 | 99 | 1015.1 |
| 20260905142739 | 21 | 235 | 1.6 | 3.2 | 0.18 | 0.10 | 0.10 | 99 | 1014.6 |
| 20260905142234 | 21 | 279 | 3.2 | 4.8 | 0.00 | 0.08 | 0.08 | 99 | 1014.4 |
| 20260905141730 | 21 | 283 | 1.6 | 1.6 | 0.00 | 0.08 | 0.08 | 99 | 1014.9 |
| 20260905141225 | 21 | 1 | 0.0 | 1.6 | 0.00 | 0.08 | 0.08 | 99 | 1015.4 |
| 20260905140720 | 21 | 61 | 0.0 | 3.2 | 0.00 | 0.08 | 0.08 | 99 | 1015.5 |
| 20260905140214 | 21 | 59 | 1.6 | 4.8 | 0.00 | 0.08 | 0.08 | 99 | 1015.4 |
| 20260905135709 | 21 | 20 | 1.6 | 3.2 | 0.00 | 0.08 | 0.08 | 99 | 1015.7 |
| 20260905135205 | 21 | 25 | 3.2 | 4.8 | 0.00 | 0.08 | 0.08 | 99 | 1015.7 |
| 20260905134659 | 21 | 301 | 1.6 | 1.6 | 0.00 | 0.08 | 0.08 | 99 | 1015.7 |
| 20260905134158 | 21 | 39 | 0.0 | 4.8 | 0.00 | 0.08 | 0.08 | 99 | 1015.9 |
| 20260905133653 | 21 | 8 | 0.0 | 4.8 | 0.00 | 0.08 | 0.08 | 99 | 1015.6 |
| 20260905133148 | 21 | 12 | 1.6 | 3.2 | 0.00 | 0.08 | 0.08 | 99 | 1016.2 |
| 20260905132647 | -17 | 0.0 | 0.0 | 0.00 | 0.08 | 0.08 | 1016.2 | ||
| 20260905132143 | -17 | 0.0 | 0.0 | 0.00 | 0.08 | 0.08 | 1016.5 | ||
| 20260905131637 | -17 | 0.0 | 0.0 | 0.00 | 0.08 | 0.08 | 1016.5 | ||
| 20260905131132 | 20 | 250 | 0.0 | 0.0 | 0.00 | 0.08 | 0.08 | 99 | 1016.5 |
| 20260905130627 | 20 | 250 | 0.0 | 0.0 | 0.00 | 0.08 | 0.08 | 99 | 1016.3 |
| 20260905130126 | -17 | 0.0 | 0.0 | 0.00 | 0.08 | 0.08 | 1016.2 | ||
| 20260905125620 | -17 | 0.0 | 0.0 | 0.00 | 0.08 | 0.08 | 1016.4 | ||
| 20260905125116 | 20 | 21 | 1.6 | 1.6 | 0.00 | 0.08 | 0.08 | 99 | 1016.4 |
| 20260905124613 | 20 | 21 | 1.6 | 1.6 | 0.00 | 0.08 | 0.08 | 99 | 1016.4 |
| 20260905124108 | 20 | 24 | 1.6 | 1.6 | 0.00 | 0.08 | 0.08 | 99 | 1016.3 |
| 20260905123603 | 20 | 19 | 1.6 | 3.2 | 0.00 | 0.08 | 0.08 | 99 | 1016.4 |